EW8359 Weather Reports


time (UTC)temp
C
wind
direction
speed
KPH
gust
KPH
rain 1hr
cm
rain 24hr
cm
rain mn
cm
humidity
%
barometer
mb
20260504191518 21 229 4.8 20.9 0.00 0.00 0.00 36 1003.3
20260504190010 20 204 3.2 17.7 0.00 0.00 0.00 39 1003.3
20260504184514 18 218 0.0 16.1 0.00 0.00 0.00 37 1003.7
20260504183018 18 231 0.0 9.7 0.00 0.00 0.00 38 1003.9
20260504181510 18 290 0.0 12.9 0.00 0.00 0.00 36 1003.7
20260504180010 18 220 0.0 9.7 0.00 0.00 0.00 34 1003.7
20260504174617 18 205 0.0 9.7 0.00 0.00 0.00 34 1003.8
20260504173015 19 196 1.6 20.9 0.00 0.00 0.00 32 1003.9
20260504171510 20 315 4.8 25.7 0.00 0.00 0.00 33 1003.7
20260504110117 7 219 0.0 0.0 0.00 0.00 0.00 71 1007.0
20260504081529 4 236 0.0 0.0 0.00 0.00 0.00 74 1007.0
20260504050009 1 220 0.0 0.0 0.00 0.00 0.00 82 1006.9
20260504044521 1 220 0.0 0.0 0.00 0.00 0.00 82 1006.9
20260504043006 1 220 0.0 0.0 0.00 0.00 0.00 82 1006.8
20260504041502 1 220 0.0 0.0 0.00 0.00 0.00 84 1006.6
20260504040107 1 209 0.0 0.0 0.00 0.00 0.00 83 1006.6
20260504040001 1 209 0.0 0.0 0.00 0.00 0.00 83 1006.6
20260504034603 1 209 0.0 0.0 0.00 0.00 0.00 81 1006.4
20260504033113 1 207 0.0 3.2 0.00 0.00 0.00 81 1006.4
20260504031554 2 302 0.0 1.6 0.00 0.00 0.00 81 1006.2
20260504030054 2 303 0.0 0.0 0.00 0.00 0.00 81 1006.3
20260504024557 2 303 0.0 0.0 0.00 0.00 0.00 79 1006.3
20260504023054 2 303 0.0 0.0 0.00 0.00 0.00 81 1006.2
20260504021551 2 307 0.0 3.2 0.00 0.00 0.00 81 1006.2
20260504020049 2 308 0.0 0.0 0.00 0.00 0.00 80 1006.3
20260504014549 2 308 0.0 3.2 0.00 0.03 0.00 79 1006.3
20260504013050 2 309 0.0 0.0 0.00 0.03 0.00 77 1006.2
20260504011543 3 309 0.0 0.0 0.00 0.03 0.00 74 1006.1
20260504010048 4 309 0.0 0.0 0.00 0.03 0.00 70 1006.0
20260504004536 5 309 0.0 0.0 0.00 0.10 0.00 68 1005.6
20260504003035 5 309 0.0 0.0 0.00 0.10 0.00 64 1005.5
20260504001537 6 304 0.0 0.0 0.00 0.10 0.00 60 1005.3
20260504000037 6 306 0.0 0.0 0.00 0.10 0.00 58 1005.0
20260503234534 7 284 0.0 8.0 0.00 0.13 0.00 54 1004.8
20260503233032 7 293 0.0 3.2 0.00 0.13 0.00 51 1004.6
20260503231532 8 304 0.0 22.5 0.00 0.13 0.00 51 1004.5
20260503230032 8 236 0.0 14.5 0.00 0.13 0.00 50 1004.3
20260503224530 8 329 0.0 11.3 0.00 0.18 0.00 48 1004.1
20260503223030 9 175 4.8 19.3 0.00 0.18 0.00 47 1003.9
20260503221629 9 274 3.2 14.5 0.00 0.18 0.00 47 1003.8
20260503220029 10 35 3.2 24.1 0.00 0.18 0.00 45 1003.6
20260503214528 10 261 1.6 16.1 0.00 0.25 0.00 48 1003.4
20260503213032 10 360 3.2 16.1 0.00 0.25 0.00 48 1003.5
20260503211527 11 351 3.2 16.1 0.00 0.25 0.00 46 1003.3
20260503210026 11 307 0.0 29.0 0.00 0.25 0.00 46 1003.0
20260503204527 12 29 1.6 12.9 0.00 0.43 0.00 46 1002.8
20260503203026 10 246 1.6 19.3 0.00 0.43 0.00 49 1002.8
20260503201530 11 250 0.0 14.5 0.00 0.43 0.00 50 1002.8
20260503200031 11 163 1.6 14.5 0.00 0.43 0.00 47 1002.7
20260503194527 12 268 6.4 20.9 0.00 0.51 0.00 49 1002.7
20260503193018 11 273 3.2 11.3 0.00 0.51 0.00 53 1002.8